Location: Kouchibouguac National Park
(46.8081°N, 64.9088°W)
Time: 06:02:07
(UTC-03:00)

Amateur Radio Satellites - All Passes

Search period start: 30 April 2016 05:32
Search period end: 01 May 2016 05:32
Location: Kouchibouguac National Park, 46.8081°N, 64.9088°W

Satellite Date Start Highest point End Downlink Frequencies (MHz)
Time Altitude Azimuth
CUBESAT XI-V 30 Apr 05:51:14 05:55:49 79° 75° (ENE) 06:00:27 437.345
HORYU 2 30 Apr 05:51:39 05:55:59 49° 100° (E) 06:00:15 437.375
Gurwin Techsat 1B 30 Apr 05:53:40 05:54:25 10° 309° (NW) 05:55:10 435.225
STRAND 1 30 Apr 05:53:51 05:56:01 13° 54° (NE) 05:58:11 437.568
ITAMSAT 1 30 Apr 05:54:59 05:58:31 19° 302° (WNW) 06:02:03 435.822/435.867
MOZHAYETS 4 30 Apr 05:55:01 05:57:20 14° 272° (W) 05:59:40
Cosmos 2491 30 Apr 05:56:27 06:01:18 16° 73° (ENE) 06:06:08 435.465 / 435.565
BEESAT 3 30 Apr 05:56:54 05:58:49 13° 250° (WSW) 06:00:45 437.485
BEESAT 2 30 Apr 05:56:59 06:00:02 21° 246° (WSW) 06:03:03 435.950
NOAA 15 30 Apr 06:13:15 06:16:43 17° 90° (E) 06:20:11 137.62
BRITE-PL 30 Apr 06:26:24 06:30:12 18° 88° (E) 06:33:59 437.365/2234.400
NOAA 18 30 Apr 06:44:59 06:49:40 28° 95° (E) 06:54:20 137.9125
Cosmos 2504 30 Apr 06:47:16 06:52:38 21° 61° (ENE) 06:58:12 435.465 / 435.565
CUTE-I 30 Apr 06:59:10 07:03:48 29° 95° (E) 07:08:23 437.470
AIST 2 30 Apr 07:01:40 07:05:45 56° 238° (WSW) 07:09:48 435.215
YUBILEINY 30 Apr 07:02:47 07:11:33 84° 81° (E) 07:20:16 435.215
AO-7 30 Apr 07:11:56 07:19:01 33° 307° (NW) 07:26:07 29.400- 29.500
RS-15 30 Apr 07:18:58 07:31:17 79° 51° (NE) 07:43:41 29.354- 29.394
HORYU 2 30 Apr 07:28:59 07:32:13 20° 298° (WNW) 07:35:26 437.375
STRAND 1 30 Apr 07:29:15 07:34:21 76° 73° (ENE) 07:39:28 437.568
LilacSat-2 30 Apr 07:31:04 07:34:49 53° 100° (E) 07:38:32 437.200
CUBESAT XI-V 30 Apr 07:31:53 07:33:48 12° 273° (W) 07:35:44 437.345
SO-50 30 Apr 07:41:13 07:44:33 18° 111° (ESE) 07:47:53 436.795
Cubesat XI-IV 30 Apr 07:42:08 07:47:28 67° 103° (ESE) 07:52:46 437.490
Cosmos 2491 30 Apr 07:47:43 07:56:29 74° 95° (E) 08:05:19 435.465 / 435.565
NOAA 15 30 Apr 07:51:43 07:57:03 72° 288° (WNW) 08:02:20 137.62
GOMX 1 30 Apr 07:53:34 07:58:55 49° 98° (E) 08:04:06 467.674
BRITE-PL 30 Apr 08:03:32 08:09:14 78° 285° (WNW) 08:14:54 437.365/2234.400
DOVE 4 30 Apr 08:05:48 08:10:30 33° 94° (E) 08:15:00 437.250
NOAA 18 30 Apr 08:25:20 08:30:32 46° 293° (WNW) 08:35:41 137.9125
CANX-2 30 Apr 08:26:44 08:29:26 16° 90° (E) 08:32:07 2200.000
M-CUBED/EXP-1 PRIME 30 Apr 08:34:23 08:38:33 72° 108° (ESE) 08:42:19 437.505
CUTE-I 30 Apr 08:38:59 08:43:59 43° 293° (WNW) 08:48:58 437.470
PRISM 30 Apr 08:39:06 08:43:09 84° 78° (ENE) 08:47:17 437.425
Cosmos 2504 30 Apr 08:39:32 08:47:01 89° 259° (W) 08:55:02 435.465 / 435.565
AUBIESAT-1 30 Apr 08:55:52 08:59:57 80° 292° (WNW) 09:03:42 437.475
CUTE 1.7 + AOD 2 30 Apr 08:59:21 09:03:06 31° 96° (E) 09:06:51 437.475
YUBILEINY 30 Apr 09:00:58 09:07:15 23° 283° (WNW) 09:13:32 435.215
HO-68 30 Apr 09:03:46 09:10:31 42° 98° (E) 09:17:13 435.675
LilacSat-2 30 Apr 09:06:35 09:08:43 15° 298° (WNW) 09:10:52 437.200
STRAND 1 30 Apr 09:11:12 09:14:07 15° 271° (W) 09:17:02 437.568
CINEMA 3 30 Apr 09:11:55 09:16:29 44° 97° (E) 09:20:48 145.822/145.860
SO-50 30 Apr 09:19:36 09:24:31 73° 309° (NW) 09:29:27 436.795
ISS 30 Apr 09:22:17 09:25:20 38° 144° (SE) 09:28:24 145.825
Cubesat XI-IV 30 Apr 09:23:12 09:27:04 21° 301° (WNW) 09:30:53 437.490
SEEDS 30 Apr 09:32:00 09:36:06 50° 100° (E) 09:40:10 437.485
GOMX 1 30 Apr 09:32:06 09:36:42 28° 297° (WNW) 09:41:14 467.674
RS-15 30 Apr 09:32:14 09:42:47 36° 255° (WSW) 09:53:22 29.354- 29.394
NOAA 15 30 Apr 09:33:40 09:35:54 13° 307° (NW) 09:38:09 137.62
COMPASS 1 30 Apr 09:41:05 09:45:06 46° 99° (E) 09:49:06 437.405
DOVE 4 30 Apr 09:43:25 09:48:12 37° 293° (WNW) 09:52:47 437.250
BRITE-PL 30 Apr 09:43:44 09:46:49 15° 304° (NW) 09:49:55 437.365/2234.400
Cosmos 2491 30 Apr 09:46:47 09:54:13 29° 297° (WNW) 10:01:42 435.465 / 435.565
UNISAT 6 30 Apr 09:47:15 09:50:57 24° 64° (ENE) 09:54:39 437.425
CANX-2 30 Apr 10:01:31 10:05:37 51° 288° (WNW) 10:09:41 2200.000
TIGRISAT 30 Apr 10:05:18 10:09:28 33° 67° (ENE) 10:13:35 435.000
Oscar 11 30 Apr 10:08:32 10:12:23 31° 96° (E) 10:16:14 145.826/435.025
M-CUBED/EXP-1 PRIME 30 Apr 10:10:19 10:12:29 14° 308° (NW) 10:14:35 437.505
AAUSAT CUBESAT 2 30 Apr 10:14:53 10:19:03 87° 106° (ESE) 10:23:12 437.432
FUNcube-1 30 Apr 10:15:51 10:19:36 30° 95° (E) 10:23:17 145.935
UWE-3 30 Apr 10:18:37 10:22:50 50° 99° (E) 10:26:56 435.000/436.395/437.385
DELFI C3 30 Apr 10:18:51 10:21:47 20° 93° (E) 10:24:43 145.870
CUBEBUG 2 30 Apr 10:19:36 10:24:02 73° 102° (ESE) 10:28:16 437.445
ANTELSAT 30 Apr 10:28:33 10:33:07 57° 72° (ENE) 10:37:38 437.575/2403.000
AUBIESAT-1 30 Apr 10:32:55 10:33:39 10° 311° (NW) 10:34:21 437.475
Cosmos 2504 30 Apr 10:34:39 10:39:24 18° 282° (WNW) 10:44:20 435.465 / 435.565
CUTE 1.7 + AOD 2 30 Apr 10:35:19 10:38:53 27° 293° (WNW) 10:42:27 437.475
CINEMA 3 30 Apr 10:49:34 10:53:20 24° 297° (WNW) 10:56:58 145.822/145.860
HUMSAT D 30 Apr 10:50:24 10:53:26 20° 92° (E) 10:56:27 437.325/437.525
GONETS M04 30 Apr 10:50:37 10:57:14 23° 58° (ENE) 11:03:45
HO-68 30 Apr 10:51:34 10:58:16 45° 298° (WNW) 11:04:56 435.675
ZACube-1 30 Apr 10:56:09 11:00:27 86° 106° (ESE) 11:04:36 437.345
ISS 30 Apr 10:58:34 11:01:46 49° 343° (NNW) 11:04:58 145.825
AIST 1 30 Apr 10:59:41 11:01:04 11° 63° (ENE) 11:02:28
QB50P2 30 Apr 11:00:33 11:04:12 28° 66° (ENE) 11:07:51 145.880/145.840
SO-50 30 Apr 11:02:23 11:05:51 19° 330° (NNW) 11:09:19 436.795
POLYITAN 1 30 Apr 11:02:38 11:06:19 28° 66° (ENE) 11:09:59 437.675
Cosmos 2499 30 Apr 11:03:31 11:06:50 13° 54° (NE) 11:10:13 435.465 / 435.565
DUCHIFAT 1 30 Apr 11:04:30 11:08:05 26° 66° (ENE) 11:11:40 145.980
POPSAT HIP 1 30 Apr 11:06:00 11:09:43 29° 67° (ENE) 11:13:27 437.405
SEEDS 30 Apr 11:08:38 11:11:27 18° 297° (WNW) 11:14:16 437.485
QB50P1 30 Apr 11:09:26 11:13:14 32° 68° (ENE) 11:17:04 145.935-145.965
COMPASS 1 30 Apr 11:17:26 11:20:22 19° 296° (WNW) 11:23:18 437.405
UNISAT 6 30 Apr 11:23:00 11:27:27 43° 262° (W) 11:31:52 437.425
AISAT 30 Apr 11:39:35 11:40:46 11° 87° (E) 11:41:57 437.250
TIGRISAT 30 Apr 11:42:02 11:46:09 30° 264° (W) 11:50:14 435.000
ESTCUBE 1 30 Apr 11:44:34 11:47:31 17° 91° (E) 11:50:27 437.505/2401.250
Oscar 11 30 Apr 11:44:47 11:48:28 28° 293° (WNW) 11:52:08 145.826/435.025
NANOSAT C BR1 30 Apr 11:45:25 11:49:40 71° 74° (ENE) 11:53:58 145.865
FUNcube-1 30 Apr 11:52:11 11:55:48 27° 294° (WNW) 11:59:21 145.935
AAUSAT CUBESAT 2 30 Apr 11:52:42 11:53:54 11° 301° (WNW) 11:55:05 437.432
DELFI C3 30 Apr 11:53:07 11:56:49 38° 290° (WNW) 12:00:31 145.870
UWE-3 30 Apr 11:55:57 11:58:56 18° 298° (WNW) 12:01:52 435.000/436.395/437.385
CUBEBUG 2 30 Apr 11:57:47 12:00:03 14° 301° (WNW) 12:02:17 437.445
BUGSAT 1 30 Apr 11:58:16 12:02:19 47° 71° (ENE) 12:06:26 437.445
ANTELSAT 30 Apr 12:07:01 12:10:10 18° 269° (W) 12:13:17 437.575/2403.000
JAS-2 30 Apr 12:08:12 12:13:03 25° 56° (NE) 12:18:22 435.910
50 SAT 30 Apr 12:22:25 12:25:39 29° 96° (E) 12:28:53 437.505
CUBEBUG 1 30 Apr 12:22:35 12:26:27 28° 95° (E) 12:30:16 437.445
HUMSAT D 30 Apr 12:25:25 12:29:15 39° 290° (WNW) 12:33:03 437.325/437.525
ZACube-1 30 Apr 12:34:35 12:36:03 12° 302° (WNW) 12:37:32 437.345
AIST 1 30 Apr 12:34:55 12:39:21 86° 262° (W) 12:43:46
ISS 30 Apr 12:35:38 12:38:40 33° 3° (N) 12:41:41 145.825
QB50P2 30 Apr 12:36:05 12:39:55 32° 264° (W) 12:43:48 145.880/145.840
POLYITAN 1 30 Apr 12:38:12 12:42:03 31° 264° (W) 12:45:55 437.675
DUCHIFAT 1 30 Apr 12:39:48 12:43:40 33° 263° (W) 12:47:34 145.980
POPSAT HIP 1 30 Apr 12:41:41 12:45:28 30° 264° (W) 12:49:16 437.405
VELOX 1 30 Apr 12:41:47 12:46:05 44° 99° (E) 12:50:21 145.980
HO-68 30 Apr 12:42:21 12:44:13 11° 320° (NW) 12:46:05 435.675
Oscar 19 30 Apr 12:44:54 12:49:09 26° 62° (ENE) 12:53:25 437.125/150
QB50P1 30 Apr 12:45:22 12:49:02 27° 265° (W) 12:52:43 145.935-145.965
GONETS M04 30 Apr 12:46:34 12:55:25 89° 78° (ENE) 13:04:09
DX 1 30 Apr 12:48:52 12:53:08 46° 100° (E) 12:57:21 434.975-435.025
Cosmos 2499 30 Apr 12:54:11 13:01:40 60° 77° (ENE) 13:09:42 435.465 / 435.565
UKube-1 30 Apr 13:00:46 13:05:01 50° 100° (E) 13:09:13 .
AO-85 30 Apr 13:02:00 13:05:31 18° 109° (ESE) 13:09:02 145.980
PHONESAT 2.4 30 Apr 13:05:11 13:07:40 21° 168° (SSE) 13:10:10 2401.200-2431.200
AISAT 30 Apr 13:13:22 13:17:53 86° 283° (WNW) 13:22:21 437.250
ESTCUBE 1 30 Apr 13:20:14 13:24:42 57° 288° (WNW) 13:29:08 437.505/2401.250
NANOSAT C BR1 30 Apr 13:24:07 13:25:54 12° 271° (W) 13:27:43 145.865
BUGSAT 1 30 Apr 13:34:59 13:37:57 18° 268° (W) 13:40:57 437.445
SPROUT 30 Apr 13:36:02 13:40:20 64° 102° (ESE) 13:44:34 437.525
JAS-2 30 Apr 13:51:33 13:57:26 68° 259° (WSW) 14:04:10 435.910
Gurwin Techsat 1B 30 Apr 13:54:47 13:59:48 44° 68° (ENE) 14:04:51 435.225
50 SAT 30 Apr 13:56:29 13:59:20 22° 294° (WNW) 14:02:11 437.505
ITAMSAT 1 30 Apr 13:57:30 14:01:28 23° 60° (ENE) 14:05:26 435.822/435.867
CUBEBUG 1 30 Apr 13:58:46 14:02:45 33° 293° (WNW) 14:06:43 437.445
ISS 30 Apr 14:12:12 14:15:28 69° 22° (NNE) 14:18:44 145.825
VELOX 1 30 Apr 14:18:49 14:22:18 23° 297° (WNW) 14:25:47 145.980
TISAT 1 30 Apr 14:20:46 14:24:59 58° 101° (E) 14:29:08 437.305
Oscar 19 30 Apr 14:23:14 14:28:13 48° 261° (W) 14:33:15 437.125/150
DX 1 30 Apr 14:25:43 14:29:02 21° 297° (WNW) 14:32:20 434.975-435.025
ITUPSAT 1 30 Apr 14:28:40 14:31:21 15° 89° (E) 14:34:03 437.325
SO-50 30 Apr 14:28:51 14:31:03 13° 20° (NNE) 14:33:14 436.795
AO-7 30 Apr 14:29:36 14:36:39 33° 53° (NE) 14:43:42 29.400- 29.500
UKube-1 30 Apr 14:37:37 14:40:43 19° 298° (WNW) 14:43:49 .
SWISSCUBE 30 Apr 14:38:58 14:42:33 21° 92° (E) 14:46:08 437.505
AO-85 30 Apr 14:39:56 14:45:26 86° 307° (NW) 14:50:50 145.980
PHONESAT 2.4 30 Apr 14:41:24 14:44:03 25° 185° (S) 14:46:43 2401.200-2431.200
GONETS M04 30 Apr 14:44:57 14:51:01 22° 284° (WNW) 14:57:05
Cosmos 2499 30 Apr 14:47:57 14:54:22 31° 276° (W) 15:01:11 435.465 / 435.565
AISAT 30 Apr 14:52:00 14:53:39 12° 303° (WNW) 14:55:17 437.250
BEESAT 30 Apr 15:11:56 15:16:23 38° 97° (E) 15:20:49 436.000
SPROUT 30 Apr 15:13:15 15:15:48 16° 299° (WNW) 15:18:21 437.525
Gurwin Techsat 1B 30 Apr 15:35:24 15:39:55 28° 266° (W) 15:44:29 435.225
ITAMSAT 1 30 Apr 15:35:28 15:40:33 57° 258° (WSW) 15:45:40 435.822/435.867
JAS-2 30 Apr 15:42:29 15:44:03 11° 281° (W) 15:45:40 435.910
ISS 30 Apr 15:49:02 15:51:41 23° 221° (SW) 15:54:20 145.825
CUSAT 1 30 Apr 15:50:03 15:53:07 33° 90° (E) 15:57:00 437.405
TISAT 1 30 Apr 15:57:33 16:00:12 16° 299° (WNW) 16:02:50 437.305
ITUPSAT 1 30 Apr 16:04:57 16:09:43 71° 287° (WNW) 16:14:27 437.325
SO-50 30 Apr 16:08:24 16:12:54 38° 43° (NE) 16:17:15 436.795
PCSat 30 Apr 16:08:27 16:12:43 24° 108° (ESE) 16:16:58 145.827
MOZHAYETS 4 30 Apr 16:08:44 16:11:02 14° 88° (E) 16:13:19
DANDE 30 Apr 16:09:19 16:11:10 16° 86° (E) 16:13:16 436.750
O/OREOS (USA 219) 30 Apr 16:11:47 16:16:22 72° 113° (ESE) 16:20:58 437.305
SWISSCUBE 30 Apr 16:16:01 16:20:38 50° 290° (WNW) 16:25:13 437.505
PHONESAT 2.4 30 Apr 16:18:42 16:20:20 13° 202° (SSW) 16:21:59 2401.200-2431.200
AO-7 30 Apr 16:20:34 16:28:50 72° 254° (WSW) 16:37:09 29.400- 29.500
AO-85 30 Apr 16:22:23 16:26:41 23° 327° (NNW) 16:30:52 145.980
KKS-1 30 Apr 16:24:27 16:28:20 28° 95° (E) 16:32:10 437.445
NOAA 18 30 Apr 16:37:12 16:39:41 13° 52° (NE) 16:42:11 137.9125
CUTE-I 30 Apr 16:48:24 16:49:55 11° 52° (NE) 16:51:25 437.470
STARS 30 Apr 16:48:36 16:52:21 26° 95° (E) 16:56:04 437.465
BEESAT 30 Apr 16:49:59 16:54:02 28° 296° (WNW) 16:58:04 436.000
HORYU 2 30 Apr 16:52:09 16:56:35 66° 73° (ENE) 17:01:03 437.375
Cubesat XI-IV 30 Apr 17:28:45 17:32:53 23° 60° (ENE) 17:37:00 437.490
GOMX 1 30 Apr 17:30:16 17:31:55 11° 53° (NE) 17:33:36 467.674
CUSAT 1 30 Apr 17:32:54 17:35:33 19° 300° (WNW) 17:38:44 437.405
NOAA 15 30 Apr 17:35:40 17:40:27 37° 65° (ENE) 17:45:18 137.62
BRITE-PL 30 Apr 17:40:05 17:43:55 24° 61° (ENE) 17:47:59 437.365/2234.400
MOZHAYETS 4 30 Apr 17:44:10 17:48:44 72° 286° (WNW) 17:53:16
ITUPSAT 1 30 Apr 17:45:32 17:46:41 11° 306° (NW) 17:47:50 437.325
CUBESAT XI-V 30 Apr 17:45:53 17:48:52 17° 90° (E) 17:51:50 437.345
SO-50 30 Apr 17:49:04 17:53:21 35° 243° (WSW) 17:57:31 436.795
M-CUBED/EXP-1 PRIME 30 Apr 17:49:34 17:53:06 22° 57° (ENE) 17:56:37 437.505
PCSat 30 Apr 17:50:20 17:55:42 60° 308° (NW) 18:01:06 145.827
DANDE 30 Apr 17:51:26 17:53:48 21° 294° (WNW) 17:56:34 436.750
O/OREOS (USA 219) 30 Apr 17:53:10 17:56:18 18° 312° (NW) 17:59:26 437.305
HO-68 30 Apr 17:54:30 17:56:05 11° 40° (NE) 17:57:39 435.675
Cosmos 2491 30 Apr 17:54:39 18:03:00 43° 70° (ENE) 18:11:14 435.465 / 435.565
KKS-1 30 Apr 18:00:53 18:04:55 33° 293° (WNW) 18:08:55 437.445
AO-85 30 Apr 18:07:44 18:09:08 11° 351° (N) 18:10:29 145.980
AUBIESAT-1 30 Apr 18:10:12 18:14:04 27° 59° (ENE) 18:17:53 437.475
NOAA 18 30 Apr 18:13:56 18:19:25 71° 71° (ENE) 18:24:55 137.9125
YUBILEINY 30 Apr 18:14:07 18:19:55 20° 76° (ENE) 18:25:42 435.215
LilacSat-2 30 Apr 18:15:39 18:19:18 40° 71° (ENE) 18:22:57 437.200
AO-7 30 Apr 18:18:41 18:23:06 15° 274° (W) 18:27:32 29.400- 29.500
CUTE-I 30 Apr 18:23:42 18:28:57 63° 71° (ENE) 18:34:13 437.470
STARS 30 Apr 18:24:45 18:28:46 35° 293° (WNW) 18:32:46 437.465
HORYU 2 30 Apr 18:31:10 18:33:36 14° 270° (W) 18:36:04 437.375
GOMX 1 30 Apr 19:03:57 19:08:54 66° 73° (ENE) 19:14:12 467.674
Cubesat XI-IV 30 Apr 19:07:19 19:12:34 58° 259° (W) 19:17:51 437.490
DOVE 4 30 Apr 19:13:18 19:18:07 44° 69° (ENE) 19:23:07 437.250
NOAA 15 30 Apr 19:15:31 19:20:15 34° 264° (W) 19:25:03 137.62
BRITE-PL 30 Apr 19:17:22 19:22:00 51° 262° (W) 19:27:05 437.365/2234.400
CUBESAT XI-V 30 Apr 19:22:02 19:26:40 62° 288° (WNW) 19:31:18 437.345
CANX-2 30 Apr 19:22:31 19:25:23 18° 63° (ENE) 19:28:16 2200.000
M-CUBED/EXP-1 PRIME 30 Apr 19:22:36 19:27:17 59° 254° (WSW) 19:31:55 437.505
MOZHAYETS 4 30 Apr 19:24:43 19:25:03 10° 305° (NW) 19:25:24
Cosmos 2504 30 Apr 19:34:04 19:36:44 12° 74° (ENE) 19:39:23 435.465 / 435.565
HO-68 30 Apr 19:35:21 19:42:00 43° 62° (ENE) 19:48:40 435.675
PCSat 30 Apr 19:36:52 19:40:15 16° 330° (NNW) 19:43:40 145.827
STRAND 1 30 Apr 19:37:35 19:41:22 21° 92° (E) 19:45:08 437.568
AUBIESAT-1 30 Apr 19:43:53 19:48:20 43° 256° (WSW) 19:52:45 437.475
CUBEBUG 2 30 Apr 19:46:32 19:48:31 13° 58° (ENE) 19:50:31 437.445
BEESAT 3 30 Apr 19:48:19 19:52:06 46° 121° (ESE) 19:55:55 437.485
AO-85 30 Apr 19:49:48 19:51:58 12° 16° (NNE) 19:54:04 145.980
BEESAT 2 30 Apr 19:50:58 19:54:29 30° 117° (ESE) 19:58:01 435.950
LilacSat-2 30 Apr 19:51:04 19:53:46 18° 268° (W) 19:56:30 437.200
Cosmos 2491 30 Apr 19:51:37 19:59:58 49° 272° (W) 20:08:16 435.465 / 435.565
CUTE 1.7 + AOD 2 30 Apr 19:54:44 19:58:29 32° 68° (ENE) 20:02:15 437.475
NOAA 18 30 Apr 19:56:51 20:00:37 18° 269° (W) 20:04:23 137.9125
CUTE-I 30 Apr 20:05:37 20:09:27 20° 269° (W) 20:13:17 437.470
YUBILEINY 30 Apr 20:06:40 20:15:25 87° 99° (E) 20:24:12 435.215
CINEMA 3 30 Apr 20:15:23 20:20:18 58° 72° (ENE) 20:25:14 145.822/145.860
ZACube-1 30 Apr 20:20:59 20:22:59 13° 59° (ENE) 20:24:59 437.345
SEEDS 30 Apr 20:26:18 20:30:20 50° 72° (ENE) 20:34:23 437.485
COMPASS 1 30 Apr 20:34:28 20:38:24 44° 71° (ENE) 20:42:22 437.405
GOMX 1 30 Apr 20:44:06 20:47:32 18° 273° (W) 20:51:06 467.674
DOVE 4 30 Apr 20:51:38 20:55:58 28° 268° (W) 21:00:27 437.250
CANX-2 30 Apr 20:56:47 21:00:54 50° 260° (W) 21:05:02 2200.000
AIST 2 30 Apr 21:03:30 21:05:45 14° 110° (ESE) 21:07:59 435.215
Oscar 11 30 Apr 21:05:55 21:09:50 35° 69° (ENE) 21:13:46 145.826/435.025
AAUSAT CUBESAT 2 30 Apr 21:07:37 21:11:43 83° 78° (ENE) 21:15:52 437.432
DELFI C3 30 Apr 21:08:07 21:10:49 18° 64° (ENE) 21:13:32 145.870
FUNcube-1 30 Apr 21:13:41 21:17:49 36° 69° (ENE) 21:21:53 145.935
STRAND 1 30 Apr 21:15:54 21:20:55 57° 290° (WNW) 21:25:54 437.568
UWE-3 30 Apr 21:17:41 21:22:16 60° 73° (ENE) 21:26:47 435.000/436.395/437.385
CUBEBUG 2 30 Apr 21:19:40 21:24:26 85° 77° (ENE) 21:29:09 437.445
Cosmos 2504 30 Apr 21:21:27 21:28:42 71° 95° (E) 21:35:50 435.465 / 435.565
HO-68 30 Apr 21:22:57 21:29:43 44° 262° (W) 21:36:30 435.675
BEESAT 3 30 Apr 21:26:45 21:30:01 24° 320° (NW) 21:33:18 437.485
BEESAT 2 30 Apr 21:28:39 21:32:18 33° 316° (NW) 21:35:58 435.950
AO-85 30 Apr 21:29:33 21:34:04 33° 40° (NE) 21:38:13 145.980
CUTE 1.7 + AOD 2 30 Apr 21:30:49 21:34:22 26° 266° (W) 21:37:56 437.475
HUMSAT D 30 Apr 21:44:28 21:47:43 22° 65° (ENE) 21:50:57 437.325/437.525
RS-15 30 Apr 21:47:08 21:56:53 36° 105° (ESE) 22:07:04 29.354- 29.394
PRISM 30 Apr 21:52:54 21:57:06 90° 276° (W) 22:01:17 437.425
ZACube-1 30 Apr 21:54:05 21:58:39 87° 255° (WSW) 22:03:09 437.345
CINEMA 3 30 Apr 21:54:07 21:57:47 20° 270° (W) 22:01:28 145.822/145.860
SEEDS 30 Apr 22:03:41 22:06:21 16° 269° (W) 22:09:02 437.485
YUBILEINY 30 Apr 22:06:46 22:13:28 24° 301° (WNW) 22:20:13 435.215
COMPASS 1 30 Apr 22:11:21 22:14:13 18° 268° (W) 22:17:06 437.405
AISAT 30 Apr 22:39:07 22:41:46 16° 60° (ENE) 22:44:26 437.250
AIST 2 30 Apr 22:39:35 22:43:42 70° 308° (NW) 22:47:52 435.215
DELFI C3 30 Apr 22:41:38 22:45:25 43° 261° (W) 22:49:12 145.870
Oscar 11 30 Apr 22:42:29 22:46:02 25° 266° (W) 22:49:38 145.826/435.025
ESTCUBE 1 30 Apr 22:46:48 22:50:16 23° 64° (ENE) 22:53:46 437.505/2401.250
FUNcube-1 30 Apr 22:50:18 22:54:07 26° 266° (W) 22:57:53 145.935
UWE-3 30 Apr 22:56:04 22:59:05 17° 270° (W) 23:02:05 435.000/436.395/437.385
CUBEBUG 2 30 Apr 22:59:46 23:01:39 12° 273° (W) 23:03:31 437.445
50 SAT 30 Apr 23:04:12 23:07:06 22° 67° (ENE) 23:09:59 437.505
PCSat 30 Apr 23:09:55 23:12:18 13° 23° (NNE) 23:14:40 145.827
AO-85 30 Apr 23:10:07 23:14:42 43° 242° (WSW) 23:18:53 145.980
UNISAT 6 30 Apr 23:12:00 23:15:54 31° 95° (E) 23:19:42 437.425
Cosmos 2504 30 Apr 23:17:08 23:22:48 24° 297° (WNW) 23:28:28 435.465 / 435.565
HUMSAT D 30 Apr 23:19:09 23:23:08 40° 262° (W) 23:27:07 437.325/437.525
CUBEBUG 1 30 Apr 23:21:11 23:25:07 33° 67° (ENE) 23:29:06 437.445
TIGRISAT 30 Apr 23:30:12 23:34:24 44° 98° (E) 23:38:30 435.000
PRISM 30 Apr 23:30:34 23:31:45 11° 302° (WNW) 23:32:57 437.425
VELOX 1 30 Apr 23:41:37 23:45:57 55° 72° (ENE) 23:50:19 145.980
DX 1 30 Apr 23:46:53 23:51:10 57° 71° (ENE) 23:55:28 434.975-435.025
ANTELSAT 30 Apr 23:54:02 23:58:26 83° 103° (ESE) 00:02:43 437.575/2403.000
RS-15 30 Apr 23:56:52 00:08:18 77° 310° (NW) 00:20:26 29.354- 29.394
GONETS M04 30 Apr 23:57:29 00:03:41 22° 77° (ENE) 00:09:53
UKube-1 30 Apr 23:57:48 00:02:03 61° 73° (ENE) 00:06:21 .
AISAT 01 May 00:13:18 00:17:44 69° 258° (WSW) 00:22:13 437.250
QB50P2 01 May 00:17:50 00:21:41 32° 96° (E) 00:25:30 145.880/145.840
POLYITAN 1 01 May 00:19:57 00:23:49 33° 96° (E) 00:27:38 437.675
AIST 2 01 May 00:20:34 00:22:58 15° 329° (NNW) 00:25:21 435.215
DUCHIFAT 1 01 May 00:20:53 00:24:38 30° 96° (E) 00:28:22 145.980
ESTCUBE 1 01 May 00:22:34 00:26:50 44° 261° (W) 00:31:09 437.505/2401.250
POPSAT HIP 1 01 May 00:23:10 00:27:05 34° 97° (E) 00:30:57 437.405
QB50P1 01 May 00:26:35 00:30:35 38° 98° (E) 00:34:32 145.935-145.965
SPROUT 01 May 00:32:05 00:36:22 70° 73° (ENE) 00:40:41 437.525
50 SAT 01 May 00:37:35 00:40:48 28° 264° (W) 00:44:01 437.505
CUSAT 1 01 May 00:38:38 00:40:30 11° 54° (NE) 00:42:26 437.405
O/OREOS (USA 219) 01 May 00:40:04 00:44:03 29° 54° (NE) 00:47:59 437.305
UNISAT 6 01 May 00:48:48 00:52:34 29° 294° (WNW) 00:56:16 437.425
PCSat 01 May 00:52:09 00:57:16 40° 47° (NE) 01:02:22 145.827
CUBEBUG 1 01 May 00:57:43 01:01:27 27° 265° (W) 01:05:13 437.445
JAS-2 01 May 00:57:47 01:03:16 21° 86° (E) 01:08:48 435.910
NANOSAT C BR1 01 May 01:02:37 01:06:53 88° 103° (ESE) 01:11:06 145.865
AIST 1 01 May 01:07:03 01:11:10 47° 93° (E) 01:15:21
TIGRISAT 01 May 01:07:33 01:10:48 21° 297° (WNW) 01:14:01 435.000
BUGSAT 1 01 May 01:12:25 01:16:34 53° 100° (E) 01:20:39 437.445
TISAT 1 01 May 01:14:52 01:19:04 63° 73° (ENE) 01:23:18 437.305
VELOX 1 01 May 01:19:54 01:22:47 17° 269° (W) 01:25:41 145.980
DX 1 01 May 01:25:02 01:27:44 16° 269° (W) 01:30:26 434.975-435.025
ANTELSAT 01 May 01:32:38 01:34:30 13° 302° (WNW) 01:36:20 437.575/2403.000
Cosmos 2499 01 May 01:35:12 01:41:44 42° 88° (E) 01:48:17 435.465 / 435.565
UKube-1 01 May 01:36:06 01:38:32 15° 270° (W) 01:40:58 .
ITUPSAT 1 01 May 01:37:47 01:41:38 25° 63° (ENE) 01:45:29 437.325
SWISSCUBE 01 May 01:47:58 01:52:13 33° 66° (ENE) 01:56:29 437.505
GONETS M04 01 May 01:50:26 01:59:19 89° 283° (WNW) 02:08:13
QB50P2 01 May 01:53:49 01:57:23 26° 294° (WNW) 02:00:56 145.880/145.840
POLYITAN 1 01 May 01:55:58 01:59:31 26° 294° (WNW) 02:03:01 437.675
DUCHIFAT 1 01 May 01:56:39 02:00:17 28° 294° (WNW) 02:03:52 145.980
POPSAT HIP 1 01 May 01:59:14 02:02:44 25° 295° (WNW) 02:06:12 437.405
QB50P1 01 May 02:02:48 02:06:11 23° 295° (WNW) 02:09:31 145.935-145.965
Gurwin Techsat 1B 01 May 02:09:33 02:12:08 14° 87° (E) 02:14:42 435.225
SPROUT 01 May 02:10:50 02:12:48 13° 271° (W) 02:14:48 437.525
RS-15 01 May 02:12:24 02:23:01 37° 341° (NNW) 02:34:08 29.354- 29.394
CUSAT 1 01 May 02:17:26 02:24:02 49° 73° (ENE) 02:31:39 437.405
O/OREOS (USA 219) 01 May 02:19:22 02:23:31 36° 253° (WSW) 02:27:37 437.305
BEESAT 01 May 02:20:56 02:25:37 61° 71° (ENE) 02:30:19 436.000
BEESAT 3 01 May 02:26:18 02:28:31 14° 31° (NNE) 02:30:42 437.485
BEESAT 2 01 May 02:29:42 02:31:06 12° 27° (NNE) 02:32:32 435.950
Oscar 19 01 May 02:31:34 02:36:37 48° 99° (E) 02:41:38 437.125/150
PCSat 01 May 02:35:40 02:40:40 39° 247° (WSW) 02:45:39 145.827
DANDE 01 May 02:39:34 02:45:10 37° 72° (ENE) 02:52:01 436.750
NANOSAT C BR1 01 May 02:40:32 02:41:58 11° 302° (WNW) 02:43:23 145.865
JAS-2 01 May 02:41:25 02:49:10 87° 105° (ESE) 02:57:04 435.910
AIST 1 01 May 02:46:01 02:49:03 18° 292° (WNW) 02:52:08
BUGSAT 1 01 May 02:48:46 02:51:34 17° 298° (WNW) 02:54:20 437.445
TISAT 1 01 May 02:52:56 02:55:09 14° 270° (W) 02:57:23 437.305
MOZHAYETS 4 01 May 03:13:10 03:16:24 19° 62° (ENE) 03:19:38
ITUPSAT 1 01 May 03:14:43 03:19:15 44° 261° (W) 03:23:50 437.325
KKS-1 01 May 03:25:01 03:29:09 37° 68° (ENE) 03:33:18 437.445
SWISSCUBE 01 May 03:25:48 03:30:01 31° 264° (W) 03:34:16 437.505
Cosmos 2499 01 May 03:28:19 03:34:52 39° 289° (WNW) 03:41:28 435.465 / 435.565
ITAMSAT 1 01 May 03:45:18 03:50:10 40° 98° (E) 03:55:01 435.822/435.867
Gurwin Techsat 1B 01 May 03:47:28 03:52:49 88° 286° (WNW) 03:58:09 435.225
STARS 01 May 03:47:47 03:51:47 34° 67° (ENE) 03:55:49 437.465
GONETS M04 01 May 03:50:51 03:57:30 23° 302° (WNW) 04:04:12
CUSAT 1 01 May 03:59:45 04:06:07 40° 268° (W) 04:13:21 437.405
BEESAT 01 May 04:00:41 04:03:49 17° 269° (W) 04:06:57 436.000
BEESAT 3 01 May 04:02:58 04:06:55 73° 51° (NE) 04:10:52 437.485
BEESAT 2 01 May 04:06:01 04:09:56 49° 49° (NE) 04:13:48 435.950
Oscar 19 01 May 04:11:24 04:15:41 27° 298° (WNW) 04:19:58 437.125/150
AO-7 01 May 04:19:05 04:26:28 33° 96° (E) 04:33:47 29.400- 29.500
YUBILEINY 01 May 04:19:12 04:22:22 12° 47° (NE) 04:25:32 435.215
DANDE 01 May 04:22:12 04:28:05 48° 265° (W) 04:35:24 436.750
JAS-2 01 May 04:27:25 04:33:21 26° 304° (NW) 04:39:27 435.910
RS-15 01 May 04:29:01 04:39:48 36° 15° (NNE) 04:50:49 29.354- 29.394
MOZHAYETS 4 01 May 04:48:43 04:53:12 54° 260° (W) 04:57:42
CUBESAT XI-V 01 May 04:51:55 04:55:29 23° 63° (ENE) 04:59:05 437.345
KKS-1 01 May 05:02:05 05:05:49 25° 266° (W) 05:09:34 437.445
AIST 2 01 May 05:20:15 05:23:52 28° 41° (NE) 05:27:26 435.215
STARS 01 May 05:24:24 05:28:11 27° 265° (W) 05:32:00 437.465
